Wind_Speed
55 56 63 67 76 85 87 94 97 95 93 90 90 86 85 87 84 81 80 77 76 77 76 76 72 70 67 67 68 69 70 72 73 72 71 73 74 72 72 74 76 76 76 76 76 70 73 69 72
49 54 56 60 65 74 83 90 94 94 94 92 89 86 87 87 85 84 81 80 78 78 76 74 71 68 66 66 66 67 68 71 72 73 73 75 78 76 75 74 74 74 77 77 74 73 70 66 66
46 49 54 56 62 72 76 81 85 89 86 89 90 91 89 88 86 86 85 82 82 79 72 67 67 66 67 64 64 66 68 71 73 72 72 71 73 75 75 77 77 76 75 75 72 67 64 62 53
43 46 49 53 63 66 65 71 75 78 84 86 89 89 89 87 86 86 85 83 79 75 69 68 67 66 67 61 58 62 63 71 75 74 69 67 71 71 74 74 72 75 71 68 66 66 66 58 52
38 41 47 51 56 55 58 60 68 72 70 76 84 84 86 83 82 82 79 74 68 65 62 63 62 61 58 57 59 59 61 64 65 64 63 64 62 61 63 67 68 62 63 67 67 64 60 53 53
34 37 46 49 52 50 49 53 56 58 56 48 78 78 80 77 75 77 67 65 60 48 47 55 53 50 54 56 58 51 55 56 60 59 59 63 62 63 63 62 61 60 60 65 63 57 54 56 58
34 36 39 44 42 44 44 48 49 53 57 67 71 71 74 73 72 67 62 52 47 49 38 39 35 42 51 52 38 42 51 55 58 60 59 50 52 55 53 56 59 61 61 62 62 59 59 56 48
31 34 38 41 38 38 40 41 39 48 55 61 63 58 62 62 61 59 52 45 45 37 33 40 31 24 28 36 39 48 50 50 49 47 51 56 59 56 59 62 60 59 55 54 57 61 55 56 61
26 33 35 32 30 32 33 31 35 42 47 50 53 53 52 53 51 48 50 47 47 44 38 38 30 23 32 49 55 53 53 52 54 59 50 47 58 59 62 52 50 56 60 62 61 58 59 69 77
24 31 32 25 23 24 27 30 37 43 47 48 47 43 43 42 40 42 44 45 44 47 48 46 39 37 34 44 52 55 46 53 48 48 48 48 58 55 53 52 52 48 46 57 64 73 80 84 89
26 27 21 23 23 22 24 30 33 39 46 49 46 42 36 35 33 37 43 46 46 47 52 46 43 43 45 46 46 51 49 56 47 49 45 53 55 59 56 66 68 72 71 73 75 75 81 82 88
21 22 19 16 20 24 20 22 27 38 43 36 37 36 35 33 36 40 42 45 48 51 52 52 50 49 45 51 51 50 54 59 53 58 57 62 64 62 63 67 71 75 77 78 81 86 83 87 91
21 18 18 14 16 17 19 21 21 24 32 29 30 30 33 35 34 33 37 41 46 50 58 55 51 47 43 51 51 57 53 56 59 57 56 62 61 58 70 67 70 73 74 82 83 89 94 94 98
13 13 13 14 14 18 19 24 20 23 22 24 27 34 32 32 28 29 31 27 37 46 46 62 56 42 43 51 42 54 55 49 52 55 57 63 67 70 72 78 88 83 86 89 90 95 93 90 85
17 21 17 19 19 19 24 25 24 31 30 30 27 24 25 22 26 34 32 35 37 37 37 54 53 53 51 57 58 49 57 57 56 62 64 67 74 73 78 79 79 85 88 88 88 89 83 80 81
12 17 16 15 18 21 20 22 28 36 34 28 32 30 30 25 22 28 35 35 38 41 45 54 62 60 50 50 59 63 65 57 65 61 70 73 70 78 78 79 82 83 88 85 86 81 77 84 78
14 16 18 19 19 18 20 26 32 40 37 32 33 34 31 37 25 25 28 36 37 40 44 49 54 63 65 65 66 59 63 62 65 64 71 77 80 75 79 81 85 87 83 80 80 83 79 79 73
17 22 24 20 21 21 23 24 29 35 42 32 31 28 30 29 32 33 31 36 42 44 47 51 55 62 66 68 65 61 60 61 70 72 72 75 77 78 78 80 79 82 84 83 81 79 76 71 72
14 17 20 21 22 22 23 25 22 32 42 42 35 25 30 31 30 36 38 40 42 44 49 54 61 58 56 58 59 58 62 60 67 70 70 66 68 74 75 76 80 84 83 75 76 74 73 74 75
12 17 20 22 24 24 22 19 23 23 27 37 35 36 39 33 39 43 42 44 41 38 44 46 51 55 61 60 59 60 57 62 63 67 67 71 75 76 78 75 72 73 72 74 71 73 77 79 80
13 16 16 19 24 23 19 15 13 16 25 26 35 37 32 36 39 40 45 45 45 47 44 48 49 54 61 62 65 70 69 72 74 74 72 71 68 69 69 68 71 70 72 75 77 78 80 82 85
15 15 16 20 22 21 18 16 15 14 19 24 27 29 31 28 32 38 38 40 41 45 41 39 39 46 54 50 52 53 55 53 56 61 62 62 64 65 67 69 71 73 79 81 81 83 85 87 87
15 15 15 21 22 19 20 20 22 21 22 21 23 24 25 29 31 36 40 43 44 45 46 50 48 48 51 54 58 57 57 57 58 57 59 61 60 65 68 72 75 79 81 80 80 81 80 80 82
17 18 16 23 22 21 23 23 22 22 23 24 24 26 28 28 30 35 38 40 39 43 44 45 48 49 51 50 47 47 50 51 53 54 57 60 64 68 71 74 75 74 75 76 79 78 79 82 86
19 21 19 21 21 19 20 20 20 21 23 23 24 25 26 27 30 34 36 36 37 38 42 43 41 35 36 39 42 44 47 51 54 56 60 63 67 69 70 70 71 74 73 73 74 79 84 87 90
17 21 20 25 25 23 22 20 26 27 25 25 25 27 30 32 33 37 38 38 37 37 35 31 29 31 35 39 43 48 51 56 57 57 61 62 63 66 71 73 71 72 75 79 84 88 90 93 96
14 19 20 23 23 19 19 19 25 27 28 26 26 30 33 35 31 32 33 34 31 28 27 29 31 36 39 43 49 52 55 56 55 59 62 65 68 72 71 72 74 75 79 83 88 91 95 99 102
17 21 21 23 22 20 18 21 24 23 27 27 26 29 33 35 34 32 30 31 29 29 30 32 35 37 44 49 52 53 50 54 58 61 65 68 71 71 72 76 78 81 84 88 92 98 101 100 100
14 20 21 17 19 19 19 23 25 27 27 29 32 35 32 29 28 27 29 30 30 29 31 36 40 43 46 48 48 50 54 57 59 62 67 70 72 74 76 79 82 86 88 93 100 102 101 103 108
18 17 22 24 26 27 27 27 28 27 29 31 34 32 27 28 29 30 31 30 30 33 37 39 41 43 43 47 51 55 57 59 63 66 67 70 73 78 83 85 87 89 95 101 102 101 106 110 111
Wind_Direction
261 253 250 245 244 243 242 241 242 243 244 246 248 250 251 255 258 259 258 261 262 262 262 263 266 269 271 270 270 270 271 272 275 276 277 279 278 277 277 276 277 279 280 281 284 281 283 284 286
259 256 248 242 240 241 240 241 241 241 243 246 247 248 250 252 256 258 259 259 260 263 264 265 268 270 272 271 272 272 273 273 274 276 277 278 277 279 280 280 281 281 282 283 284 284 286 286 288
260 257 251 244 237 235 237 239 241 241 242 244 245 246 248 250 252 256 260 261 263 263 265 271 274 274 272 270 269 268 268 270 270 270 273 275 276 276 279 279 281 284 284 284 286 287 287 288 284
261 256 248 246 241 236 238 239 239 239 239 243 244 246 247 249 251 253 256 260 262 268 271 271 271 269 268 269 265 262 263 265 267 269 270 275 276 281 279 278 280 283 286 289 288 289 289 285 277
265 255 251 245 240 239 237 238 239 238 241 244 244 246 250 250 254 254 253 256 260 265 266 266 265 263 263 261 262 261 263 264 268 267 270 275 276 281 283 284 281 284 285 289 293 293 291 280 283
267 256 249 246 241 237 235 236 236 234 232 241 244 244 247 249 250 253 254 258 265 258 250 260 260 265 264 258 258 263 263 267 272 270 270 277 280 283 285 283 283 286 291 291 297 288 281 280 290
267 255 248 243 236 232 232 234 230 230 226 234 244 246 247 248 250 252 255 254 250 252 246 246 256 261 259 253 259 268 272 274 271 275 278 279 274 277 279 282 286 290 298 295 288 283 292 294 295
265 250 238 233 228 222 224 228 224 232 232 237 240 244 250 253 253 255 253 247 237 238 228 247 239 254 267 259 271 270 276 278 268 270 277 277 271 276 285 296 296 292 294 296 289 290 299 289 287
256 244 233 228 229 227 225 224 221 224 231 235 242 246 254 252 253 255 257 253 240 226 229 237 248 252 256 240 258 268 269 271 270 265 272 282 289 295 295 292 294 297 291 294 297 296 289 292 295
249 241 233 220 218 212 211 208 214 216 221 227 232 239 242 250 255 249 252 246 233 227 219 228 228 232 231 243 257 259 265 272 277 275 279 289 292 289 281 295 295 296 291 291 291 286 295 290 292
249 241 220 213 211 200 202 207 205 214 216 222 226 233 233 249 248 234 234 229 220 224 219 219 219 228 234 235 259 258 260 271 278 284 277 284 279 283 284 289 283 286 283 283 287 295 295 296 297
253 239 207 195 201 200 198 204 207 210 215 219 225 234 239 242 231 232 223 217 220 212 217 226 218 227 239 249 251 259 265 275 267 283 280 281 277 281 278 284 285 285 279 286 287 297 297 300 299
236 227 207 211 197 198 201 208 210 217 212 223 225 226 228 224 224 222 224 211 210 214 214 218 218 227 244 249 254 257 269 271 267 274 274 270 270 274 277 278 289 287 288 287 291 295 295 297 297
232 197 204 211 219 223 229 228 217 199 208 211 214 218 216 218 217 221 224 223 215 220 225 216 221 231 241 235 257 253 260 268 268 272 270 269 271 270 275 280 279 289 286 287 290 297 297 298 298
216 192 196 212 227 235 235 225 205 193 201 203 205 203 210 212 216 214 224 231 225 224 222 216 221 232 246 245 246 249 256 263 269 264 263 276 274 278 276 281 284 287 290 292 293 300 301 301 299
211 194 202 219 233 235 224 206 201 195 196 200 204 205 213 212 205 227 228 232 224 231 233 219 225 234 240 246 251 256 247 255 265 266 268 275 283 280 280 284 287 287 294 296 295 298 298 299 297
238 225 220 227 232 224 207 194 192 202 199 199 195 202 211 217 212 233 236 223 231 233 233 232 233 236 240 246 248 255 257 257 266 270 273 275 278 279 283 286 288 294 295 293 297 299 297 297 295
225 235 240 237 224 221 203 210 202 205 203 209 212 216 224 227 227 221 233 234 232 234 238 241 240 242 242 247 249 254 259 265 267 271 276 280 278 281 286 289 291 294 296 298 297 296 295 292 292
239 228 232 232 237 222 216 212 208 213 213 221 224 222 231 227 240 230 233 235 235 237 238 236 234 238 246 249 254 264 266 274 273 274 278 281 287 287 288 291 292 294 295 293 293 293 290 291 291
229 228 224 228 229 216 215 212 214 215 224 232 242 245 243 243 238 229 238 240 238 243 244 247 251 253 250 258 262 266 275 275 279 282 285 286 290 293 293 294 292 291 289 291 292 290 289 290 291
227 227 231 231 214 228 215 213 225 224 229 231 232 236 236 246 243 238 241 242 248 250 251 253 261 258 256 264 265 264 269 274 274 280 285 287 290 290 290 289 291 291 291 292 291 290 290 291 293
228 237 241 221 210 226 224 219 235 234 232 230 238 240 237 245 249 251 249 246 243 247 246 251 260 265 267 267 269 270 276 284 278 278 284 288 290 293 293 293 293 291 292 292 292 290 287 289 293
232 238 236 225 228 227 234 227 229 245 245 243 240 242 242 247 250 254 255 254 253 248 248 251 252 257 267 277 281 283 283 284 287 288 290 290 291 293 292 293 293 291 292 293 294 296 300 301 301
237 238 247 230 238 232 242 243 239 240 237 242 245 243 241 251 257 260 263 262 263 261 263 262 264 270 273 278 279 280 286 287 289 290 292 293 292 292 292 294 295 296 298 300 302 302 302 302 303
245 232 242 235 229 237 251 251 247 247 252 252 254 258 257 257 259 263 264 266 267 271 276 274 275 280 283 278 283 286 286 287 290 290 290 290 293 294 295 298 300 300 302 303 302 303 304 304 303
242 238 240 224 225 236 252 255 251 253 256 251 251 256 261 262 258 259 260 262 264 268 272 273 282 280 279 282 281 281 285 286 290 291 291 293 295 297 301 302 301 298 300 302 302 303 303 303 303
245 242 252 236 240 240 253 255 249 250 256 258 256 258 263 266 265 262 261 263 263 264 269 275 272 271 267 273 277 282 285 289 288 291 295 298 301 303 303 304 304 304 304 303 304 305 305 304 304
237 245 239 232 237 243 243 262 265 264 263 271 271 268 269 269 269 268 264 264 265 264 262 267 269 267 268 273 280 282 285 289 293 296 300 303 305 306 306 305 305 305 306 306 307 308 307 307 307
252 246 239 235 247 246 247 260 267 275 275 274 272 280 274 271 270 275 276 274 270 271 273 273 272 276 278 281 284 290 292 294 297 302 304 305 305 306 306 308 308 308 308 308 310 310 309 309 308
252 240 237 243 247 253 260 266 275 276 274 275 278 276 276 273 273 275 273 270 272 273 273 277 281 283 283 289 294 293 299 302 303 303 303 304 306 310 312 311 310 310 310 311 310 309 309 309 310
Height
10690 10693 10696 10702 10710 10716 10721 10723 10728 10740 10749 10757 10761 10769 10776 10775 10780 10786 10792 10798 10801 10803 10806 10809 10813 10818 10822 10822 10822 10822 10824 10822 10821 10821 10819 10817 10815 10813 10811 10808 10804 10803 10803 10804 10804 10802 10799 10796 10791
10674 10675 10680 10684 10690 10696 10698 10702 10713 10723 10736 10745 10752 10758 10763 10766 10770 10774 10778 10786 10791 10793 10797 10801 10806 10810 10812 10812 10812 10812 10811 10810 10809 10808 10806 10803 10799 10799 10797 10795 10792 10790 10790 10790 10792 10791 10788 10783 10779
10659 10661 10663 10668 10671 10670 10677 10693 10703 10716 10729 10732 10737 10740 10746 10754 10761 10762 10766 10775 10776 10782 10792 10796 10798 10800 10799 10799 10799 10800 10799 10797 10794 10794 10792 10790 10787 10785 10786 10782 10780 10778 10775 10775 10781 10778 10777 10772 10768
10644 10646 10648 10650 10650 10662 10675 10681 10690 10701 10711 10717 10722 10728 10734 10743 10747 10752 10755 10761 10769 10778 10782 10786 10787 10785 10784 10787 10787 10786 10786 10783 10782 10783 10781 10779 10777 10776 10775 10772 10770 10768 10765 10762 10766 10766 10764 10761 10758
10631 10633 10634 10634 10638 10654 10662 10670 10677 10691 10706 10706 10709 10718 10723 10732 10735 10738 10747 10753 10761 10768 10770 10771 10769 10769 10773 10773 10774 10775 10775 10773 10772 10771 10769 10769 10768 10767 10765 10763 10761 10757 10755 10753 10751 10755 10752 10750 10749
10620 10620 10618 10624 10632 10645 10656 10660 10670 10682 10697 10684 10689 10704 10708 10714 10720 10726 10739 10748 10754 10756 10756 10756 10756 10760 10762 10764 10765 10766 10766 10764 10762 10761 10759 10757 10758 10757 10754 10752 10749 10747 10747 10744 10741 10739 10740 10742 10738
10610 10607 10608 10612 10626 10638 10646 10653 10664 10670 10678 10680 10685 10691 10699 10703 10706 10720 10728 10741 10742 10745 10748 10745 10751 10752 10751 10753 10758 10757 10757 10756 10755 10751 10749 10748 10749 10748 10746 10744 10741 10737 10736 10735 10731 10728 10726 10727 10728
10602 10598 10598 10602 10619 10630 10637 10646 10661 10666 10666 10671 10678 10682 10689 10691 10700 10710 10715 10726 10730 10735 10736 10735 10744 10746 10746 10747 10747 10749 10746 10744 10742 10742 10741 10738 10739 10739 10736 10733 10731 10727 10726 10724 10721 10719 10715 10716 10716
10595 10592 10595 10607 10618 10628 10634 10644 10652 10657 10662 10664 10667 10675 10679 10683 10694 10700 10705 10713 10720 10725 10727 10729 10731 10734 10739 10740 10741 10739 10737 10733 10733 10734 10732 10732 10730 10729 10724 10723 10721 10718 10716 10713 10710 10711 10707 10700 10697
10590 10589 10595 10606 10615 10622 10628 10638 10645 10649 10652 10655 10658 10667 10668 10676 10688 10692 10697 10703 10711 10716 10718 10721 10725 10728 10729 10732 10732 10728 10726 10724 10724 10725 10723 10722 10722 10721 10717 10713 10711 10707 10705 10703 10702 10700 10693 10688 10683
10587 10590 10597 10604 10609 10616 10623 10630 10637 10640 10643 10647 10653 10659 10663 10671 10678 10680 10688 10692 10702 10705 10706 10711 10715 10716 10718 10721 10719 10717 10717 10716 10718 10717 10718 10717 10715 10711 10709 10705 10705 10699 10694 10693 10689 10684 10681 10678 10674
10586 10590 10598 10601 10608 10612 10619 10624 10629 10633 10640 10644 10654 10657 10664 10666 10666 10673 10676 10686 10692 10693 10696 10701 10705 10708 10710 10711 10710 10711 10712 10710 10710 10711 10712 10708 10707 10705 10700 10694 10689 10687 10683 10680 10677 10673 10667 10664 10657
10583 10590 10597 10600 10605 10612 10616 10621 10626 10632 10637 10648 10652 10655 10658 10658 10661 10663 10669 10678 10682 10687 10691 10693 10694 10698 10702 10706 10704 10704 10705 10705 10704 10704 10704 10699 10696 10692 10688 10683 10677 10674 10671 10670 10667 10662 10656 10651 10643
10588 10592 10597 10601 10607 10612 10616 10618 10624 10633 10638 10644 10648 10650 10652 10654 10658 10660 10665 10671 10677 10682 10684 10687 10689 10691 10692 10693 10697 10697 10697 10697 10694 10692 10692 10689 10685 10683 10676 10675 10669 10665 10661 10657 10653 10648 10641 10632 10625
10588 10592 10596 10600 10604 10609 10612 10614 10623 10630 10636 10642 10645 10647 10649 10652 10653 10657 10661 10665 10671 10674 10678 10681 10682 10680 10683 10686 10688 10687 10689 10687 10686 10681 10677 10675 10674 10671 10670 10664 10660 10654 10650 10644 10639 10631 10623 10616 10609
10589 10591 10596 10599 10603 10606 10611 10614 10620 10627 10631 10635 10640 10644 10646 10649 10649 10651 10655 10659 10664 10667 10670 10672 10674 10676 10677 10678 10678 10677 10676 10677 10672 10673 10669 10665 10662 10660 10657 10652 10648 10643 10637 10631 10624 10617 10611 10604 10597
10589 10593 10596 10600 10603 10604 10609 10613 10618 10623 10629 10633 10635 10638 10641 10643 10645 10649 10651 10654 10658 10660 10662 10665 10666 10666 10668 10667 10667 10668 10667 10666 10664 10662 10661 10660 10656 10652 10646 10642 10636 10630 10624 10617 10611 10604 10595 10591 10583
10591 10594 10597 10600 10603 10604 10609 10612 10617 10622 10626 10629 10633 10636 10639 10643 10645 10645 10649 10651 10654 10655 10656 10659 10661 10660 10659 10661 10661 10660 10658 10656 10655 10655 10653 10650 10646 10642 10634 10630 10624 10618 10610 10602 10597 10589 10583 10578 10569
10590 10592 10595 10599 10601 10604 10608 10612 10616 10620 10623 10625 10630 10634 10637 10639 10643 10642 10644 10645 10648 10649 10651 10652 10653 10652 10654 10654 10653 10652 10652 10649 10648 10646 10644 10636 10633 10629 10623 10616 10608 10601 10596 10590 10585 10576 10568 10563 10555
10590 10591 10594 10597 10601 10605 10608 10611 10614 10617 10620 10625 10628 10631 10633 10635 10637 10638 10639 10640 10643 10646 10646 10647 10647 10645 10645 10644 10644 10642 10640 10639 10638 10635 10629 10624 10619 10612 10607 10599 10594 10589 10584 10579 10570 10564 10555 10547 10540
10589 10592 10596 10597 10600 10604 10605 10607 10611 10615 10619 10620 10622 10624 10626 10626 10628 10632 10634 10636 10639 10640 10643 10643 10641 10639 10640 10637 10635 10632 10632 10630 10629 10623 10617 10612 10607 10602 10595 10588 10583 10577 10572 10565 10558 10550 10542 10533 10523
10590 10593 10595 10596 10599 10603 10606 10608 10609 10612 10613 10616 10619 10623 10624 10624 10623 10624 10626 10629 10631 10633 10635 10636 10636 10634 10631 10630 10629 10625 10623 10619 10617 10612 10607 10602 10596 10589 10582 10575 10570 10565 10558 10550 10544 10535 10527 10517 10507
10591 10592 10593 10595 10597 10600 10603 10606 10607 10607 10609 10612 10615 10618 10619 10620 10619 10618 10619 10621 10624 10626 10628 10628 10628 10625 10620 10618 10617 10612 10610 10606 10603 10598 10594 10590 10584 10578 10570 10563 10558 10552 10543 10535 10525 10513 10505 10496 10488
10589 10590 10591 10593 10595 10598 10599 10603 10604 10607 10609 10610 10612 10615 10617 10618 10616 10615 10615 10615 10617 10619 10621 10621 10620 10616 10612 10609 10605 10601 10598 10595 10591 10587 10583 10579 10573 10566 10558 10551 10543 10534 10525 10515 10504 10496 10487 10479 10468
10585 10586 10588 10589 10593 10595 10597 10598 10601 10602 10604 10606 10606 10606 10609 10611 10612 10610 10610 10610 10609 10608 10606 10606 10606 10605 10602 10599 10595 10592 10589 10585 10582 10578 10574 10568 10561 10552 10544 10535 10527 10517 10507 10498 10490 10480 10471 10461 10449
10581 10582 10584 10586 10589 10592 10593 10595 10596 10597 10600 10601 10603 10602 10601 10604 10606 10605 10605 10605 10603 10602 10598 10597 10597 10597 10594 10590 10588 10584 10580 10577 10572 10568 10562 10556 10548 10539 10530 10519 10512 10503 10494 10482 10471 10460 10450 10438 10426
10577 10580 10581 10583 10586 10589 10590 10591 10592 10595 10595 10597 10599 10597 10595 10595 10597 10597 10596 10596 10595 10595 10595 10592 10591 10590 10586 10583 10580 10577 10572 10567 10562 10555 10548 10539 10532 10524 10512 10504 10494 10486 10476 10464 10451 10440 10428 10416 10403
10573 10576 10578 10580 10582 10585 10587 10586 10587 10590 10590 10591 10591 10590 10589 10587 10586 10586 10586 10586 10587 10589 10588 10585 10583 10581 10579 10576 10571 10568 10563 10558 10551 10543 10534 10525 10517 10508 10499 10487 10477 10467 10455 10442 10430 10417 10402 10387 10374
10570 10571 10573 10576 10578 10580 10582 10581 10582 10583 10584 10584 10582 10579 10577 10575 10576 10575 10575 10577 10578 10578 10579 10577 10575 10572 10568 10564 10560 10555 10550 10544 10536 10529 10519 10510 10500 10490 10480 10469 10457 10445 10433 10419 10404 10389 10374 10360 10346
10565 10565 10568 10570 10571 10573 10575 10575 10574 10577 10576 10574 10573 10571 10569 10568 10567 10567 10567 10568 10569 10570 10569 10568 10566 10562 10557 10552 10547 10540 10534 10527 10520 10513 10504 10495 10484 10471 10459 10447 10435 10422 10408 10394 10379 10364 10350 10334 10318